"FILENAME","TIMESTAMP","SAMPLE","STATION","LATITUDE","LONGITUDE","SAMPLE_DATE","SAMPLE_TIME","DEPTH","DEPTH_UNITS","TOTALQ","TOTALV","TOTALU","FECALQ","FECALV","FECALU","ENTEROQ","ENTEROV","ENTEROU",
"201802COLISBOO.csv","2018APR16095506","1802056892","I19",  32.53633,-117.12900,"20180205",1138,2,"m","<",2,"CFU/100 mL","<",2,"CFU/100 mL","<",2,"CFU/100 mL",
"201802COLISBOO.csv","2018APR16095506","1802056893","I19",  32.53633,-117.12900,"20180205",1138,6,"m","<",2,"CFU/100 mL","<",2,"CFU/100 mL","<",2,"CFU/100 mL",
"201802COLISBOO.csv","2018APR16095506","1802056894","I19",  32.53633,-117.12900,"20180205",1138,11,"m","<",2,"CFU/100 mL","<",2,"CFU/100 mL","<",2,"CFU/100 mL",
"201802COLISBOO.csv","2018APR16095506","1802056895","I24",  32.55667,-117.14500,"20180205",1159,2,"m","<",2,"CFU/100 mL","<",2,"CFU/100 mL","<",2,"CFU/100 mL",
"201802COLISBOO.csv","2018APR16095506","1802056896","I24",  32.55667,-117.14500,"20180205",1159,6,"m","<",2,"CFU/100 mL","<",2,"CFU/100 mL","<",2,"CFU/100 mL",
"201802COLISBOO.csv","2018APR16095506","1802056897","I24",  32.55667,-117.14500,"20180205",1159,11,"m","e",4,"CFU/100 mL","<",2,"CFU/100 mL","<",2,"CFU/100 mL",
"201802COLISBOO.csv","2018APR16095506","1802056898","I25",  32.56117,-117.14800,"20180205",1207,2,"m","<",2,"CFU/100 mL","<",2,"CFU/100 mL","<",2,"CFU/100 mL",
"201802COLISBOO.csv","2018APR16095506","1802056899","I25",  32.56117,-117.14800,"20180205",1207,6,"m","<",2,"CFU/100 mL","<",2,"CFU/100 mL","<",2,"CFU/100 mL",
"201802COLISBOO.csv","2018APR16095506","1802056900","I25",  32.56117,-117.14800,"20180205",1207,9,"m","e",4,"CFU/100 mL","<",2,"CFU/100 mL","<",2,"CFU/100 mL",
"201802COLISBOO.csv","2018APR16095506","1802056901","I26",  32.57450,-117.14700,"20180205",1219,2,"m","<",2,"CFU/100 mL","<",2,"CFU/100 mL","<",2,"CFU/100 mL",
"201802COLISBOO.csv","2018APR16095506","1802056902","I26",  32.57450,-117.14700,"20180205",1219,6,"m","<",2,"CFU/100 mL","e",2,"CFU/100 mL","<",2,"CFU/100 mL",
"201802COLISBOO.csv","2018APR16095506","1802056903","I26",  32.57450,-117.14700,"20180205",1219,9,"m","<",2,"CFU/100 mL","<",2,"CFU/100 mL","<",2,"CFU/100 mL",
"201802COLISBOO.csv","2018APR16095506","1802056904","I32",  32.59467,-117.13800,"20180205",1232,2,"m","<",2,"CFU/100 mL","<",2,"CFU/100 mL","<",2,"CFU/100 mL",
"201802COLISBOO.csv","2018APR16095506","1802056905","I32",  32.59467,-117.13800,"20180205",1232,6,"m","<",2,"CFU/100 mL","<",2,"CFU/100 mL","<",2,"CFU/100 mL",
"201802COLISBOO.csv","2018APR16095506","1802056906","I32",  32.59467,-117.13800,"20180205",1232,9,"m","<",2,"CFU/100 mL","<",2,"CFU/100 mL","<",2,"CFU/100 mL",
"201802COLISBOO.csv","2018APR16095506","1802056907","I39",  32.57233,-117.16750,"20180205",1114,2,"m","<",2,"CFU/100 mL","<",2,"CFU/100 mL","<",2,"CFU/100 mL",
"201802COLISBOO.csv","2018APR16095506","1802056908","I39",  32.57233,-117.16750,"20180205",1114,12,"m","<",2,"CFU/100 mL","<",2,"CFU/100 mL","<",2,"CFU/100 mL",
"201802COLISBOO.csv","2018APR16095506","1802056909","I39",  32.57233,-117.16750,"20180205",1114,18,"m","e",8,"CFU/100 mL","e",2,"CFU/100 mL","<",2,"CFU/100 mL",
"201802COLISBOO.csv","2018APR16095506","1802056910","I40",  32.55383,-117.13617,"20180205",1149,2,"m","<",2,"CFU/100 mL","<",2,"CFU/100 mL","<",2,"CFU/100 mL",
"201802COLISBOO.csv","2018APR16095506","1802056911","I40",  32.55383,-117.13617,"20180205",1149,6,"m","<",2,"CFU/100 mL","<",2,"CFU/100 mL","<",2,"CFU/100 mL",
"201802COLISBOO.csv","2018APR16095506","1802056912","I40",  32.55383,-117.13617,"20180205",1149,9,"m","e",4,"CFU/100 mL","<",2,"CFU/100 mL","<",2,"CFU/100 mL",
"201802COLISBOO.csv","2018APR16095506","1802066920","I10",  32.51667,-117.15600,"20180206",1053,2,"m","e",2,"CFU/100 mL","<",2,"CFU/100 mL","<",2,"CFU/100 mL",
"201802COLISBOO.csv","2018APR16095506","1802066921","I10",  32.51667,-117.15600,"20180206",1053,12,"m","e",2,"CFU/100 mL","<",2,"CFU/100 mL","<",2,"CFU/100 mL",
"201802COLISBOO.csv","2018APR16095506","1802066922","I10",  32.51667,-117.15600,"20180206",1053,18,"m","e",2,"CFU/100 mL","<",2,"CFU/100 mL","<",2,"CFU/100 mL",
"201802COLISBOO.csv","2018APR16095506","1802066923","I11",  32.51333,-117.13700,"20180206",1041,2,"m","<",2,"CFU/100 mL","<",2,"CFU/100 mL","<",2,"CFU/100 mL",
"201802COLISBOO.csv","2018APR16095506","1802066924","I11",  32.51333,-117.13700,"20180206",1041,6,"m","<",2,"CFU/100 mL","<",2,"CFU/100 mL","<",2,"CFU/100 mL",
"201802COLISBOO.csv","2018APR16095506","1802066925","I11",  32.51333,-117.13700,"20180206",1041,11,"m","<",2,"CFU/100 mL","<",2,"CFU/100 mL","<",2,"CFU/100 mL",
"201802COLISBOO.csv","2018APR16095506","1802066926","I3",  32.46700,-117.16800,"20180206",942,2,"m","<",2,"CFU/100 mL","<",2,"CFU/100 mL","<",2,"CFU/100 mL",
"201802COLISBOO.csv","2018APR16095506","1802066927","I3",  32.46700,-117.16800,"20180206",942,18,"m","<",2,"CFU/100 mL","<",2,"CFU/100 mL","<",2,"CFU/100 mL",
"201802COLISBOO.csv","2018APR16095506","1802066928","I3",  32.46700,-117.16800,"20180206",942,27,"m","<",2,"CFU/100 mL","<",2,"CFU/100 mL","<",2,"CFU/100 mL",
"201802COLISBOO.csv","2018APR16095506","1802066929","I5",  32.47167,-117.13000,"20180206",1007,2,"m","<",2,"CFU/100 mL","<",2,"CFU/100 mL","<",2,"CFU/100 mL",
"201802COLISBOO.csv","2018APR16095506","1802066930","I5",  32.47167,-117.13000,"20180206",1007,6,"m","<",2,"CFU/100 mL","<",2,"CFU/100 mL","<",2,"CFU/100 mL",
"201802COLISBOO.csv","2018APR16095506","1802066931","I5",  32.47167,-117.13000,"20180206",1007,11,"m","<",2,"CFU/100 mL","<",2,"CFU/100 mL","<",2,"CFU/100 mL",
"201802COLISBOO.csv","2018APR16095506","1802066932","I7",  32.51667,-117.25300,"20180206",836,2,"m","<",2,"CFU/100 mL","<",2,"CFU/100 mL","<",2,"CFU/100 mL",
"201802COLISBOO.csv","2018APR16095506","1802066933","I7",  32.51667,-117.25300,"20180206",836,18,"m","e",2,"CFU/100 mL","<",2,"CFU/100 mL","<",2,"CFU/100 mL",
"201802COLISBOO.csv","2018APR16095506","1802066934","I7",  32.51667,-117.25300,"20180206",836,52,"m","<",2,"CFU/100 mL","<",2,"CFU/100 mL","e",2,"CFU/100 mL",
"201802COLISBOO.csv","2018APR16095506","1802066935","I8",  32.51667,-117.20200,"20180206",1121,2,"m","<",2,"CFU/100 mL","<",2,"CFU/100 mL","<",2,"CFU/100 mL",
"201802COLISBOO.csv","2018APR16095506","1802066936","I8",  32.51667,-117.20200,"20180206",1121,18,"m","<",2,"CFU/100 mL","<",2,"CFU/100 mL","<",2,"CFU/100 mL",
"201802COLISBOO.csv","2018APR16095506","1802066937","I8",  32.51667,-117.20200,"20180206",1121,37,"m","<",2,"CFU/100 mL","<",2,"CFU/100 mL","<",2,"CFU/100 mL",
"201802COLISBOO.csv","2018APR16095506","1802066938","I9",  32.51167,-117.17900,"20180206",1108,2,"m","<",2,"CFU/100 mL","<",2,"CFU/100 mL","<",2,"CFU/100 mL",
"201802COLISBOO.csv","2018APR16095506","1802066939","I9",  32.51167,-117.17900,"20180206",1108,18,"m","<",2,"CFU/100 mL","<",2,"CFU/100 mL","<",2,"CFU/100 mL",
"201802COLISBOO.csv","2018APR16095506","1802066940","I9",  32.51167,-117.17900,"20180206",1108,27,"m","<",2,"CFU/100 mL","<",2,"CFU/100 mL","<",2,"CFU/100 mL",
"201802COLISBOO.csv","2018APR16095506","1802067149","S4",  32.53530,-117.12500,"20180206",854,,"m","<",2,"CFU/100 mL","<",2,"CFU/100 mL","<",2,"CFU/100 mL",
"201802COLISBOO.csv","2018APR16095506","1802067150","S10",  32.54330,-117.12500,"20180206",901,,"m","<",2,"CFU/100 mL","<",2,"CFU/100 mL","e",2,"CFU/100 mL",
"201802COLISBOO.csv","2018APR16095506","1802067151","S12",  32.58570,-117.13300,"20180206",949,,"m","<",2,"CFU/100 mL","<",2,"CFU/100 mL","<",2,"CFU/100 mL",
"201802COLISBOO.csv","2018APR16095506","1802067152","S6",  32.56630,-117.13300,"20180206",1002,,"m","<",2,"CFU/100 mL","<",2,"CFU/100 mL","<",2,"CFU/100 mL",
"201802COLISBOO.csv","2018APR16095506","1802067153","S11",  32.56130,-117.13200,"20180206",1006,,"m","e",6,"CFU/100 mL","<",2,"CFU/100 mL","<",2,"CFU/100 mL",
"201802COLISBOO.csv","2018APR16095506","1802067154","S5",  32.55780,-117.13100,"20180206",1012,,"m","",44,"CFU/100 mL","<",2,"CFU/100 mL","e",14,"CFU/100 mL",
"201802COLISBOO.csv","2018APR16095506","1802067155","S8",  32.63680,-117.14400,"20180206",1155,,"m","<",2,"CFU/100 mL","<",2,"CFU/100 mL","e",2,"CFU/100 mL",
"201802COLISBOO.csv","2018APR16095506","1802067156","S9",  32.67700,-117.17800,"20180206",1224,,"m","<",2,"CFU/100 mL","<",2,"CFU/100 mL","<",2,"CFU/100 mL",
"201802COLISBOO.csv","2018APR16095506","1802067356","S3",  32.52570,-117.12400,"20180206",1145,,"m","<",2,"CFU/100 mL","<",2,"CFU/100 mL","<",2,"CFU/100 mL",
"201802COLISBOO.csv","2018APR16095506","1802067357","S2",  32.49870,-117.12300,"20180206",1115,,"m","e",2,"CFU/100 mL","<",2,"CFU/100 mL","<",2,"CFU/100 mL",
"201802COLISBOO.csv","2018APR16095506","1802067358","S0",  32.41913,-117.09728,"20180206",1015,,"m","e",300,"CFU/100 mL","e",16,"CFU/100 mL","",44,"CFU/100 mL",
"201802COLISBOO.csv","2018APR16095506","1802076974","I12",  32.53283,-117.18300,"20180207",1058,2,"m","",54,"CFU/100 mL","e",6,"CFU/100 mL","e",2,"CFU/100 mL",
"201802COLISBOO.csv","2018APR16095506","1802076975","I12",  32.53283,-117.18300,"20180207",1058,18,"m","<",2,"CFU/100 mL","<",2,"CFU/100 mL","<",2,"CFU/100 mL",
"201802COLISBOO.csv","2018APR16095506","1802076976","I12",  32.53283,-117.18300,"20180207",1058,27,"m","<",2,"CFU/100 mL","<",2,"CFU/100 mL","<",2,"CFU/100 mL",
"201802COLISBOO.csv","2018APR16095506","1802076977","I13",  32.53750,-117.21200,"20180207",1136,2,"m","<",2,"CFU/100 mL","<",2,"CFU/100 mL","<",2,"CFU/100 mL",
"201802COLISBOO.csv","2018APR16095506","1802076978","I13",  32.53750,-117.21200,"20180207",1136,18,"m","<",2,"CFU/100 mL","<",2,"CFU/100 mL","<",2,"CFU/100 mL",
"201802COLISBOO.csv","2018APR16095506","1802076979","I13",  32.53750,-117.21200,"20180207",1136,37,"m","<",2,"CFU/100 mL","<",2,"CFU/100 mL","<",2,"CFU/100 mL",
"201802COLISBOO.csv","2018APR16095506","1802076980","I14",  32.54300,-117.18400,"20180207",1119,2,"m","<",2,"CFU/100 mL","<",2,"CFU/100 mL","<",2,"CFU/100 mL",
"201802COLISBOO.csv","2018APR16095506","1802076981","I14",  32.54300,-117.18400,"20180207",1119,18,"m","e",28,"CFU/100 mL","<",2,"CFU/100 mL","<",2,"CFU/100 mL",
"201802COLISBOO.csv","2018APR16095506","1802076982","I14",  32.54300,-117.18400,"20180207",1119,27,"m","e",8,"CFU/100 mL","<",2,"CFU/100 mL","<",2,"CFU/100 mL",
"201802COLISBOO.csv","2018APR16095506","1802076983","I16",  32.53783,-117.18300,"20180207",1048,2,"m","<",2,"CFU/100 mL","<",2,"CFU/100 mL","<",2,"CFU/100 mL",
"201802COLISBOO.csv","2018APR16095506","1802076984","I16",  32.53783,-117.18300,"20180207",1048,18,"m","<",2,"CFU/100 mL","e",2,"CFU/100 mL","<",2,"CFU/100 mL",
"201802COLISBOO.csv","2018APR16095506","1802076985","I16",  32.53783,-117.18300,"20180207",1048,27,"m","<",2,"CFU/100 mL","<",2,"CFU/100 mL","<",2,"CFU/100 mL",
"201802COLISBOO.csv","2018APR16095506","1802076986","I18",  32.53617,-117.16100,"20180207",1026,2,"m","<",2,"CFU/100 mL","<",2,"CFU/100 mL","<",2,"CFU/100 mL",
"201802COLISBOO.csv","2018APR16095506","1802076987","I18",  32.53617,-117.16100,"20180207",1026,12,"m","<",2,"CFU/100 mL","<",2,"CFU/100 mL","<",2,"CFU/100 mL",
"201802COLISBOO.csv","2018APR16095506","1802076988","I18",  32.53617,-117.16100,"20180207",1026,18,"m","<",2,"CFU/100 mL","<",2,"CFU/100 mL","<",2,"CFU/100 mL",
"201802COLISBOO.csv","2018APR16095506","1802076989","I20",  32.55700,-117.25700,"20180207",900,2,"m","<",2,"CFU/100 mL","<",2,"CFU/100 mL","<",2,"CFU/100 mL",
"201802COLISBOO.csv","2018APR16095506","1802076990","I20",  32.55700,-117.25700,"20180207",900,18,"m","<",2,"CFU/100 mL","<",2,"CFU/100 mL","<",2,"CFU/100 mL",
"201802COLISBOO.csv","2018APR16095506","1802076991","I20",  32.55700,-117.25700,"20180207",900,55,"m","<",2,"CFU/100 mL","<",2,"CFU/100 mL","<",2,"CFU/100 mL",
"201802COLISBOO.csv","2018APR16095506","1802076992","I21",  32.56067,-117.22700,"20180207",925,2,"m","<",2,"CFU/100 mL","<",2,"CFU/100 mL","<",2,"CFU/100 mL",
"201802COLISBOO.csv","2018APR16095506","1802076993","I21",  32.56067,-117.22700,"20180207",925,18,"m","<",2,"CFU/100 mL","<",2,"CFU/100 mL","<",2,"CFU/100 mL",
"201802COLISBOO.csv","2018APR16095506","1802076994","I21",  32.56067,-117.22700,"20180207",925,37,"m","<",2,"CFU/100 mL","<",2,"CFU/100 mL","<",2,"CFU/100 mL",
"201802COLISBOO.csv","2018APR16095506","1802076995","I22",  32.55333,-117.18500,"20180207",1000,2,"m","e",2,"CFU/100 mL","<",2,"CFU/100 mL","<",2,"CFU/100 mL",
"201802COLISBOO.csv","2018APR16095506","1802076996","I22",  32.55333,-117.18500,"20180207",1000,18,"m","e",22,"CFU/100 mL","e",2,"CFU/100 mL","<",2,"CFU/100 mL",
"201802COLISBOO.csv","2018APR16095506","1802076997","I22",  32.55333,-117.18500,"20180207",1000,27,"m","<",2,"CFU/100 mL","<",2,"CFU/100 mL","e",2,"CFU/100 mL",
"201802COLISBOO.csv","2018APR16095506","1802076998","I23",  32.55083,-117.16500,"20180207",1014,2,"m","<",2,"CFU/100 mL","<",2,"CFU/100 mL","<",2,"CFU/100 mL",
"201802COLISBOO.csv","2018APR16095506","1802076999","I23",  32.55083,-117.16500,"20180207",1014,12,"m","<",2,"CFU/100 mL","<",2,"CFU/100 mL","<",2,"CFU/100 mL",
"201802COLISBOO.csv","2018APR16095506","1802077000","I23",  32.55083,-117.16500,"20180207",1014,18,"m","<",2,"CFU/100 mL","<",2,"CFU/100 mL","<",2,"CFU/100 mL",
"201802COLISBOO.csv","2018APR16095506","1802087035","I30",  32.59533,-117.19700,"20180208",941,2,"m","<",2,"CFU/100 mL","<",2,"CFU/100 mL","<",2,"CFU/100 mL",
"201802COLISBOO.csv","2018APR16095506","1802087036","I30",  32.59533,-117.19700,"20180208",941,18,"m","<",2,"CFU/100 mL","<",2,"CFU/100 mL","<",2,"CFU/100 mL",
"201802COLISBOO.csv","2018APR16095506","1802087037","I30",  32.59533,-117.19700,"20180208",941,27,"m","e",4,"CFU/100 mL","<",2,"CFU/100 mL","e",2,"CFU/100 mL",
"201802COLISBOO.csv","2018APR16095506","1802087038","I33",  32.62383,-117.23700,"20180208",840,2,"m","<",2,"CFU/100 mL","<",2,"CFU/100 mL","<",2,"CFU/100 mL",
"201802COLISBOO.csv","2018APR16095506","1802087039","I33",  32.62383,-117.23700,"20180208",840,18,"m","e",4,"CFU/100 mL","<",2,"CFU/100 mL","<",2,"CFU/100 mL",
"201802COLISBOO.csv","2018APR16095506","1802087040","I33",  32.62383,-117.23700,"20180208",840,27,"m","<",2,"CFU/100 mL","e",2,"CFU/100 mL","<",2,"CFU/100 mL",
"201802COLISBOO.csv","2018APR16095506","1802087041","I36",  32.63917,-117.15400,"20180208",1021,2,"m","<",2,"CFU/100 mL","<",2,"CFU/100 mL","<",2,"CFU/100 mL",
"201802COLISBOO.csv","2018APR16095506","1802087042","I36",  32.63917,-117.15400,"20180208",1021,6,"m","<",2,"CFU/100 mL","<",2,"CFU/100 mL","<",2,"CFU/100 mL",
"201802COLISBOO.csv","2018APR16095506","1802087043","I36",  32.63917,-117.15400,"20180208",1021,11,"m","<",20,"CFU/100 mL","<",2,"CFU/100 mL","<",2,"CFU/100 mL",
"201802COLISBOO.csv","2018APR16095506","1802087044","I37",  32.64800,-117.21633,"20180208",812,2,"m","<",2,"CFU/100 mL","<",2,"CFU/100 mL","<",2,"CFU/100 mL",
"201802COLISBOO.csv","2018APR16095506","1802087045","I37",  32.64800,-117.21633,"20180208",812,6,"m","<",2,"CFU/100 mL","<",2,"CFU/100 mL","<",2,"CFU/100 mL",
"201802COLISBOO.csv","2018APR16095506","1802087046","I37",  32.64800,-117.21633,"20180208",812,11,"m","<",2,"CFU/100 mL","<",2,"CFU/100 mL","<",2,"CFU/100 mL",
"201802COLISBOO.csv","2018APR16095506","1802087047","I38",  32.66883,-117.18667,"20180208",1055,2,"m","<",2,"CFU/100 mL","<",2,"CFU/100 mL","<",2,"CFU/100 mL",
"201802COLISBOO.csv","2018APR16095506","1802087048","I38",  32.66883,-117.18667,"20180208",1055,6,"m","<",2,"CFU/100 mL","<",2,"CFU/100 mL","<",2,"CFU/100 mL",
"201802COLISBOO.csv","2018APR16095506","1802087049","I38",  32.66883,-117.18667,"20180208",1055,11,"m","<",2,"CFU/100 mL","<",2,"CFU/100 mL","<",2,"CFU/100 mL",
"201802COLISBOO.csv","2018APR16095506","1802137430","S10",  32.54330,-117.12500,"20180213",836,,"m","e",4,"CFU/100 mL","<",2,"CFU/100 mL","<",2,"CFU/100 mL",
"201802COLISBOO.csv","2018APR16095506","1802137431","S4",  32.53530,-117.12500,"20180213",842,,"m","e",14,"CFU/100 mL","e",2,"CFU/100 mL","e",12,"CFU/100 mL",
"201802COLISBOO.csv","2018APR16095506","1802137432","S12",  32.58570,-117.13300,"20180213",944,,"m","e",14,"CFU/100 mL","<",2,"CFU/100 mL","e",10,"CFU/100 mL",
"201802COLISBOO.csv","2018APR16095506","1802137433","S6",  32.56630,-117.13300,"20180213",955,,"m","e",20,"CFU/100 mL","e",4,"CFU/100 mL","e",22,"CFU/100 mL",
"201802COLISBOO.csv","2018APR16095506","1802137434","S11",  32.56130,-117.13200,"20180213",1000,,"m","e",20,"CFU/100 mL","e",2,"CFU/100 mL","e",2,"CFU/100 mL",
"201802COLISBOO.csv","2018APR16095506","1802137435","S5",  32.55780,-117.13100,"20180213",1007,,"m","e",6,"CFU/100 mL","e",2,"CFU/100 mL","e",6,"CFU/100 mL",
"201802COLISBOO.csv","2018APR16095506","1802137436","S8",  32.63680,-117.14400,"20180213",1126,,"m","<",2,"CFU/100 mL","<",2,"CFU/100 mL","<",2,"CFU/100 mL",
"201802COLISBOO.csv","2018APR16095506","1802137437","S9",  32.67700,-117.17800,"20180213",1159,,"m","<",2,"CFU/100 mL","<",2,"CFU/100 mL","e",2,"CFU/100 mL",
"201802COLISBOO.csv","2018APR16095506","1802137574","S0",  32.41913,-117.09728,"20180213",1025,,"m","e",1200,"CFU/100 mL","",74,"CFU/100 mL","e",320,"CFU/100 mL",
"201802COLISBOO.csv","2018APR16095506","1802137575","S2",  32.49870,-117.12300,"20180213",1245,,"m","e",40,"CFU/100 mL","e",2,"CFU/100 mL","e",26,"CFU/100 mL",
"201802COLISBOO.csv","2018APR16095506","1802137576","S3",  32.52570,-117.12400,"20180213",1150,,"m","e",16,"CFU/100 mL","e",4,"CFU/100 mL","e",2,"CFU/100 mL",
"201802COLISBOO.csv","2018APR16095506","1802167462","I19",  32.53633,-117.12900,"20180216",1011,2,"m","",480,"CFU/100 mL","e",14,"CFU/100 mL","e",2,"CFU/100 mL",
"201802COLISBOO.csv","2018APR16095506","1802167463","I19",  32.53633,-117.12900,"20180216",1011,6,"m","e",200,"CFU/100 mL","e",4,"CFU/100 mL","e",10,"CFU/100 mL",
"201802COLISBOO.csv","2018APR16095506","1802167464","I19",  32.53633,-117.12900,"20180216",1011,11,"m","e",360,"CFU/100 mL","",40,"CFU/100 mL","e",16,"CFU/100 mL",
"201802COLISBOO.csv","2018APR16095506","1802167465","I24",  32.55667,-117.14500,"20180216",1033,2,"m","<",2,"CFU/100 mL","<",2,"CFU/100 mL","<",2,"CFU/100 mL",
"201802COLISBOO.csv","2018APR16095506","1802167466","I24",  32.55667,-117.14500,"20180216",1033,6,"m","<",2,"CFU/100 mL","<",2,"CFU/100 mL","<",2,"CFU/100 mL",
"201802COLISBOO.csv","2018APR16095506","1802167467","I24",  32.55667,-117.14500,"20180216",1033,11,"m","e",2,"CFU/100 mL","<",2,"CFU/100 mL","<",2,"CFU/100 mL",
"201802COLISBOO.csv","2018APR16095506","1802167468","I25",  32.56117,-117.14800,"20180216",1041,2,"m","<",2,"CFU/100 mL","<",2,"CFU/100 mL","<",2,"CFU/100 mL",
"201802COLISBOO.csv","2018APR16095506","1802167469","I25",  32.56117,-117.14800,"20180216",1041,6,"m","<",2,"CFU/100 mL","<",2,"CFU/100 mL","<",2,"CFU/100 mL",
"201802COLISBOO.csv","2018APR16095506","1802167470","I25",  32.56117,-117.14800,"20180216",1041,9,"m","<",2,"CFU/100 mL","<",2,"CFU/100 mL","<",2,"CFU/100 mL",
"201802COLISBOO.csv","2018APR16095506","1802167471","I26",  32.57450,-117.14700,"20180216",1051,2,"m","<",2,"CFU/100 mL","<",2,"CFU/100 mL","<",2,"CFU/100 mL",
"201802COLISBOO.csv","2018APR16095506","1802167472","I26",  32.57450,-117.14700,"20180216",1051,6,"m","<",2,"CFU/100 mL","<",2,"CFU/100 mL","<",2,"CFU/100 mL",
"201802COLISBOO.csv","2018APR16095506","1802167473","I26",  32.57450,-117.14700,"20180216",1051,9,"m","<",2,"CFU/100 mL","<",2,"CFU/100 mL","<",2,"CFU/100 mL",
"201802COLISBOO.csv","2018APR16095506","1802167474","I32",  32.59467,-117.13800,"20180216",1104,2,"m","<",2,"CFU/100 mL","<",2,"CFU/100 mL","<",2,"CFU/100 mL",
"201802COLISBOO.csv","2018APR16095506","1802167475","I32",  32.59467,-117.13800,"20180216",1104,6,"m","<",2,"CFU/100 mL","<",2,"CFU/100 mL","<",2,"CFU/100 mL",
"201802COLISBOO.csv","2018APR16095506","1802167476","I32",  32.59467,-117.13800,"20180216",1104,9,"m","e",2,"CFU/100 mL","<",2,"CFU/100 mL","<",2,"CFU/100 mL",
"201802COLISBOO.csv","2018APR16095506","1802167477","I39",  32.57233,-117.16750,"20180216",952,2,"m","<",2,"CFU/100 mL","<",2,"CFU/100 mL","<",2,"CFU/100 mL",
"201802COLISBOO.csv","2018APR16095506","1802167478","I39",  32.57233,-117.16750,"20180216",952,12,"m","<",2,"CFU/100 mL","<",2,"CFU/100 mL","<",2,"CFU/100 mL",
"201802COLISBOO.csv","2018APR16095506","1802167479","I39",  32.57233,-117.16750,"20180216",952,18,"m","<",2,"CFU/100 mL","<",2,"CFU/100 mL","<",2,"CFU/100 mL",
"201802COLISBOO.csv","2018APR16095506","1802167480","I40",  32.55383,-117.13617,"20180216",1024,2,"m","e",1400,"CFU/100 mL","e",80,"CFU/100 mL","e",6,"CFU/100 mL",
"201802COLISBOO.csv","2018APR16095506","1802167481","I40",  32.55383,-117.13617,"20180216",1024,6,"m","e",600,"CFU/100 mL","",64,"CFU/100 mL","e",30,"CFU/100 mL",
"201802COLISBOO.csv","2018APR16095506","1802167482","I40",  32.55383,-117.13617,"20180216",1024,9,"m","e",1600,"CFU/100 mL","e",140,"CFU/100 mL","",42,"CFU/100 mL",
"201802COLISBOO.csv","2018APR16095506","1802207533","I19",  32.53633,-117.12900,"20180220",1017,2,"m","<",2,"CFU/100 mL","<",2,"CFU/100 mL","<",2,"CFU/100 mL",
"201802COLISBOO.csv","2018APR16095506","1802207534","I19",  32.53633,-117.12900,"20180220",1017,6,"m","<",2,"CFU/100 mL","<",2,"CFU/100 mL","<",2,"CFU/100 mL",
"201802COLISBOO.csv","2018APR16095506","1802207535","I19",  32.53633,-117.12900,"20180220",1017,11,"m","<",2,"CFU/100 mL","<",2,"CFU/100 mL","<",2,"CFU/100 mL",
"201802COLISBOO.csv","2018APR16095506","1802207536","I24",  32.55667,-117.14500,"20180220",1041,2,"m","<",20,"CFU/100 mL","<",2,"CFU/100 mL","<",2,"CFU/100 mL",
"201802COLISBOO.csv","2018APR16095506","1802207537","I24",  32.55667,-117.14500,"20180220",1041,6,"m","<",2,"CFU/100 mL","<",2,"CFU/100 mL","<",2,"CFU/100 mL",
"201802COLISBOO.csv","2018APR16095506","1802207538","I24",  32.55667,-117.14500,"20180220",1041,11,"m","<",2,"CFU/100 mL","<",2,"CFU/100 mL","<",2,"CFU/100 mL",
"201802COLISBOO.csv","2018APR16095506","1802207539","I25",  32.56117,-117.14800,"20180220",1049,2,"m","<",2,"CFU/100 mL","<",2,"CFU/100 mL","<",2,"CFU/100 mL",
"201802COLISBOO.csv","2018APR16095506","1802207540","I25",  32.56117,-117.14800,"20180220",1049,6,"m","<",2,"CFU/100 mL","<",2,"CFU/100 mL","<",2,"CFU/100 mL",
"201802COLISBOO.csv","2018APR16095506","1802207541","I25",  32.56117,-117.14800,"20180220",1049,9,"m","<",2,"CFU/100 mL","<",2,"CFU/100 mL","<",2,"CFU/100 mL",
"201802COLISBOO.csv","2018APR16095506","1802207542","I26",  32.57450,-117.14700,"20180220",1054,2,"m","<",2,"CFU/100 mL","<",2,"CFU/100 mL","<",2,"CFU/100 mL",
"201802COLISBOO.csv","2018APR16095506","1802207543","I26",  32.57450,-117.14700,"20180220",1054,6,"m","<",2,"CFU/100 mL","<",2,"CFU/100 mL","<",2,"CFU/100 mL",
"201802COLISBOO.csv","2018APR16095506","1802207544","I26",  32.57450,-117.14700,"20180220",1054,9,"m","<",2,"CFU/100 mL","<",2,"CFU/100 mL","<",2,"CFU/100 mL",
"201802COLISBOO.csv","2018APR16095506","1802207545","I32",  32.59467,-117.13800,"20180220",1408,2,"m","<",2,"CFU/100 mL","<",2,"CFU/100 mL","<",2,"CFU/100 mL",
"201802COLISBOO.csv","2018APR16095506","1802207546","I32",  32.59467,-117.13800,"20180220",1408,6,"m","<",2,"CFU/100 mL","<",2,"CFU/100 mL","<",2,"CFU/100 mL",
"201802COLISBOO.csv","2018APR16095506","1802207547","I32",  32.59467,-117.13800,"20180220",1408,9,"m","<",2,"CFU/100 mL","<",2,"CFU/100 mL","<",2,"CFU/100 mL",
"201802COLISBOO.csv","2018APR16095506","1802207548","I39",  32.57233,-117.16750,"20180220",959,2,"m","<",2,"CFU/100 mL","<",2,"CFU/100 mL","<",2,"CFU/100 mL",
"201802COLISBOO.csv","2018APR16095506","1802207549","I39",  32.57233,-117.16750,"20180220",959,12,"m","<",2,"CFU/100 mL","<",2,"CFU/100 mL","<",2,"CFU/100 mL",
"201802COLISBOO.csv","2018APR16095506","1802207550","I39",  32.57233,-117.16750,"20180220",959,18,"m","<",2,"CFU/100 mL","<",2,"CFU/100 mL","<",2,"CFU/100 mL",
"201802COLISBOO.csv","2018APR16095506","1802207551","I40",  32.55383,-117.13617,"20180220",1032,2,"m","<",2,"CFU/100 mL","<",2,"CFU/100 mL","e",2,"CFU/100 mL",
"201802COLISBOO.csv","2018APR16095506","1802207552","I40",  32.55383,-117.13617,"20180220",1032,6,"m","<",2,"CFU/100 mL","<",2,"CFU/100 mL","<",2,"CFU/100 mL",